Time,TemperatureF,DewpointF,PressureIn,WindDirection,WindDirectionDegrees,WindSpeedMPH,WindSpeedGustMPH,Humidity,HourlyPrecipIn,Conditions,Clouds,dailyrainin,SoftwareType,DateUTC
2013-01-09 00:02:00,32.0,28.0,-100.00,West,260,4.0,9.0,89,0.00,,,0.00,,2013-01-09 06:02:00,
2013-01-09 00:12:00,31.0,28.0,-100.00,West,270,3.0,6.0,89,0.00,,,0.00,,2013-01-09 06:12:00,
2013-01-09 00:22:00,31.0,28.0,-100.00,SSW,200,1.0,7.0,89,0.00,,,0.00,,2013-01-09 06:22:00,
2013-01-09 00:32:00,31.0,28.0,-100.00,SSW,210,2.0,7.0,90,0.00,,,0.00,,2013-01-09 06:32:00,
2013-01-09 00:42:00,31.0,28.0,-100.00,West,275,2.0,6.0,90,0.00,,,0.00,,2013-01-09 06:42:00,
2013-01-09 00:52:00,31.0,28.0,-100.00,SW,225,2.0,7.0,90,0.00,,,0.00,,2013-01-09 06:52:00,
2013-01-09 01:02:00,31.0,28.0,-100.00,WSW,255,1.0,6.0,90,0.00,,,0.00,,2013-01-09 07:02:00,
2013-01-09 01:12:00,31.0,28.0,-100.00,WSW,255,2.0,6.0,90,0.00,,,0.00,,2013-01-09 07:12:00,
2013-01-09 01:22:00,32.0,28.0,-100.00,West,275,2.0,9.0,90,0.00,,,0.00,,2013-01-09 07:22:00,
2013-01-09 01:32:00,32.0,30.0,-100.00,West,275,3.0,9.0,90,0.00,,,0.00,,2013-01-09 07:32:00,
2013-01-09 01:42:00,32.0,30.0,-100.00,SW,235,3.0,8.0,90,0.00,,,0.00,,2013-01-09 07:42:00,
2013-01-09 01:52:00,32.0,30.0,-100.00,South,180,1.0,7.0,90,0.00,,,0.00,,2013-01-09 07:52:00,
2013-01-09 02:02:00,33.0,30.0,-100.00,SSW,210,4.0,7.0,90,0.00,,,0.00,,2013-01-09 08:02:00,
2013-01-09 02:12:00,32.0,30.0,-100.00,South,180,2.0,7.0,89,0.00,,,0.00,,2013-01-09 08:12:00,
2013-01-09 02:22:00,32.0,28.0,-100.00,SSW,205,4.0,9.0,88,0.00,,,0.00,,2013-01-09 08:22:00,
2013-01-09 02:32:00,32.0,28.0,-100.00,SW,230,2.0,7.0,88,0.00,,,0.00,,2013-01-09 08:32:00,
2013-01-09 02:42:00,31.0,28.0,-100.00,SSW,210,2.0,7.0,88,0.00,,,0.00,,2013-01-09 08:42:00,
2013-01-09 02:52:00,31.0,28.0,-100.00,SSW,205,2.0,7.0,88,0.00,,,0.00,,2013-01-09 08:52:00,
2013-01-09 03:02:00,30.0,27.0,-100.00,SW,220,3.0,6.0,88,0.00,,,0.00,,2013-01-09 09:02:00,
2013-01-09 03:12:00,30.0,28.0,-100.00,South,185,2.0,7.0,89,0.00,,,0.00,,2013-01-09 09:12:00,
2013-01-09 03:22:00,30.0,28.0,-100.00,South,190,3.0,7.0,90,0.00,,,0.00,,2013-01-09 09:22:00,
2013-01-09 03:32:00,30.0,27.0,-100.00,South,180,4.0,6.0,90,0.00,,,0.00,,2013-01-09 09:32:00,
2013-01-09 03:42:00,30.0,28.0,-100.00,East,80,1.0,6.0,91,0.00,,,0.00,,2013-01-09 09:42:00,
2013-01-09 03:53:00,30.0,28.0,-100.00,SSW,200,3.0,9.0,92,0.00,,,0.00,,2013-01-09 09:53:00,
2013-01-09 04:02:00,31.0,28.0,-100.00,South,180,2.0,9.0,92,0.00,,,0.00,,2013-01-09 10:02:00,
2013-01-09 04:11:00,31.0,28.0,-100.00,SW,225,3.0,11.0,92,0.00,,,0.00,,2013-01-09 10:11:00,
2013-01-09 04:22:00,32.0,30.0,-100.00,SW,220,4.0,14.0,93,0.00,,,0.00,,2013-01-09 10:22:00,
2013-01-09 04:32:00,31.0,30.0,-100.00,West,260,2.0,11.0,93,0.00,,,0.00,,2013-01-09 10:32:00,
2013-01-09 04:42:00,32.0,30.0,-100.00,West,275,6.0,11.0,92,0.00,,,0.00,,2013-01-09 10:42:00,
2013-01-09 04:52:00,33.0,30.0,-100.00,West,280,9.0,17.0,91,0.00,,,0.00,,2013-01-09 10:52:00,
2013-01-09 05:02:00,33.0,30.0,-100.00,West,275,7.0,19.0,88,0.00,,,0.00,,2013-01-09 11:02:00,
2013-01-09 05:12:00,34.0,30.0,-100.00,West,280,12.0,21.0,85,0.00,,,0.00,,2013-01-09 11:12:00,
2013-01-09 05:22:00,34.0,28.0,-100.00,West,270,7.0,22.0,82,0.00,,,0.00,,2013-01-09 11:22:00,
2013-01-09 05:32:00,34.0,28.0,-100.00,West,275,9.0,21.0,80,0.00,,,0.00,,2013-01-09 11:32:00,
2013-01-09 05:42:00,34.0,28.0,-100.00,West,260,7.0,17.0,80,0.00,,,0.00,,2013-01-09 11:42:00,
2013-01-09 05:52:00,34.0,28.0,-100.00,West,280,9.0,20.0,79,0.00,,,0.00,,2013-01-09 11:52:00,
2013-01-09 06:03:00,34.0,28.0,-100.00,WNW,295,12.0,26.0,78,0.00,,,0.00,,2013-01-09 12:03:00,
2013-01-09 06:12:00,34.0,28.0,-100.00,WNW,290,9.0,25.0,77,0.00,,,0.00,,2013-01-09 12:12:00,
2013-01-09 06:23:00,34.0,27.0,-100.00,WNW,285,9.0,24.0,77,0.00,,,0.00,,2013-01-09 12:23:00,
2013-01-09 06:33:00,34.0,27.0,-100.00,WNW,285,12.0,22.0,76,0.00,,,0.00,,2013-01-09 12:33:00,
2013-01-09 06:42:00,34.0,27.0,-100.00,WNW,285,9.0,27.0,75,0.00,,,0.00,,2013-01-09 12:42:00,
2013-01-09 06:52:00,33.0,27.0,-100.00,WNW,300,9.0,22.0,75,0.00,,,0.00,,2013-01-09 12:52:00,
2013-01-09 07:02:00,33.0,25.0,-100.00,WNW,285,6.0,24.0,73,0.00,,,0.00,,2013-01-09 13:02:00,
2013-01-09 07:12:00,33.0,25.0,-100.00,WNW,295,9.0,19.0,73,0.00,,,0.00,,2013-01-09 13:12:00,
2013-01-09 07:22:00,33.0,25.0,-100.00,WNW,295,11.0,21.0,72,0.00,,,0.00,,2013-01-09 13:22:00,
2013-01-09 07:33:00,33.0,25.0,-100.00,WNW,285,10.0,19.0,72,0.00,,,0.00,,2013-01-09 13:33:00,
2013-01-09 07:42:00,32.0,25.0,-100.00,WNW,285,9.0,22.0,72,0.00,,,0.00,,2013-01-09 13:42:00,
2013-01-09 07:52:00,32.0,25.0,-100.00,WNW,285,9.0,19.0,72,0.00,,,0.00,,2013-01-09 13:52:00,
2013-01-09 08:03:00,32.0,25.0,-100.00,WNW,285,7.0,23.0,71,0.00,,,0.00,,2013-01-09 14:03:00,
2013-01-09 08:12:00,32.0,23.0,-100.00,WNW,290,9.0,21.0,71,0.00,,,0.00,,2013-01-09 14:12:00,
2013-01-09 08:22:00,32.0,23.0,-100.00,WNW,290,9.0,17.0,71,0.00,,,0.00,,2013-01-09 14:22:00,
2013-01-09 08:33:00,32.0,23.0,-100.00,West,280,6.0,19.0,71,0.00,,,0.00,,2013-01-09 14:33:00,
2013-01-09 08:43:00,32.0,23.0,-100.00,NW,305,8.0,18.0,70,0.00,,,0.00,,2013-01-09 14:43:00,
2013-01-09 08:53:00,33.0,23.0,-100.00,WNW,300,10.0,24.0,68,0.00,,,0.00,,2013-01-09 14:53:00,
2013-01-09 09:03:00,33.0,23.0,-100.00,WNW,300,9.0,21.0,67,0.00,,,0.00,,2013-01-09 15:03:00,
2013-01-09 09:12:00,33.0,23.0,-100.00,West,280,10.0,21.0,66,0.00,,,0.00,,2013-01-09 15:12:00,
2013-01-09 09:22:00,33.0,23.0,-100.00,West,275,4.0,20.0,65,0.00,,,0.00,,2013-01-09 15:22:00,
2013-01-09 09:33:00,33.0,23.0,-100.00,WNW,295,11.0,21.0,65,0.00,,,0.00,,2013-01-09 15:33:00,
2013-01-09 09:42:00,34.0,23.0,-100.00,West,280,6.0,18.0,64,0.00,,,0.00,,2013-01-09 15:42:00,
2013-01-09 09:53:00,34.0,23.0,-100.00,WNW,295,9.0,22.0,63,0.00,,,0.00,,2013-01-09 15:53:00,
2013-01-09 10:03:00,35.0,23.0,-100.00,WNW,285,11.0,16.0,61,0.00,,,0.00,,2013-01-09 16:03:00,
2013-01-09 10:12:00,35.0,23.0,-100.00,WNW,285,10.0,17.0,60,0.00,,,0.00,,2013-01-09 16:12:00,
2013-01-09 10:22:00,35.0,23.0,-100.00,WNW,295,10.0,20.0,59,0.00,,,0.00,,2013-01-09 16:22:00,
2013-01-09 10:33:00,35.0,23.0,-100.00,NW,305,7.0,18.0,59,0.00,,,0.00,,2013-01-09 16:33:00,
2013-01-09 10:42:00,36.0,23.0,-100.00,NW,315,7.0,15.0,59,0.00,,,0.00,,2013-01-09 16:42:00,
2013-01-09 10:52:00,36.0,23.0,-100.00,WNW,285,6.0,14.0,58,0.00,,,0.00,,2013-01-09 16:52:00,
2013-01-09 11:02:00,36.0,23.0,-100.00,WNW,285,9.0,15.0,57,0.00,,,0.00,,2013-01-09 17:02:00,
2013-01-09 11:12:00,36.0,23.0,-100.00,WNW,285,8.0,15.0,57,0.00,,,0.00,,2013-01-09 17:12:00,
2013-01-09 11:22:00,37.0,23.0,-100.00,West,280,7.0,12.0,54,0.00,,,0.00,,2013-01-09 17:22:00,
2013-01-09 11:32:00,37.0,21.0,-100.00,West,280,6.0,15.0,54,0.00,,,0.00,,2013-01-09 17:32:00,
2013-01-09 11:43:00,37.0,21.0,-100.00,WNW,285,4.0,15.0,54,0.00,,,0.00,,2013-01-09 17:43:00,
2013-01-09 11:53:00,36.0,21.0,-100.00,West,265,6.0,13.0,54,0.00,,,0.00,,2013-01-09 17:53:00,
2013-01-09 12:03:00,37.0,21.0,-100.00,West,270,7.0,11.0,54,0.00,,,0.00,,2013-01-09 18:03:00,
2013-01-09 12:12:00,38.0,23.0,-100.00,West,265,4.0,11.0,53,0.00,,,0.00,,2013-01-09 18:12:00,
2013-01-09 12:23:00,38.0,21.0,-100.00,WSW,255,8.0,15.0,51,0.00,,,0.00,,2013-01-09 18:23:00,
2013-01-09 12:33:00,38.0,21.0,-100.00,West,280,7.0,12.0,51,0.00,,,0.00,,2013-01-09 18:33:00,
2013-01-09 12:43:00,38.0,21.0,-100.00,West,270,5.0,13.0,50,0.00,,,0.00,,2013-01-09 18:43:00,
2013-01-09 12:53:00,38.0,21.0,-100.00,WSW,240,7.0,15.0,50,0.00,,,0.00,,2013-01-09 18:53:00,
2013-01-09 13:02:00,38.0,21.0,-100.00,WNW,290,6.0,12.0,49,0.00,,,0.00,,2013-01-09 19:02:00,
2013-01-09 13:12:00,38.0,21.0,-100.00,WNW,290,6.0,12.0,49,0.00,,,0.00,,2013-01-09 19:12:00,
2013-01-09 13:22:00,38.0,21.0,-100.00,WNW,290,6.0,12.0,49,0.00,,,0.00,,2013-01-09 19:22:00,
2013-01-09 13:33:00,38.0,21.0,-100.00,WNW,290,6.0,12.0,49,0.00,,,0.00,,2013-01-09 19:33:00,
2013-01-09 13:43:00,38.0,21.0,-100.00,WNW,290,6.0,12.0,49,0.00,,,0.00,,2013-01-09 19:43:00,
2013-01-09 14:03:00,36.0,21.0,-100.00,West,265,4.0,14.0,53,0.00,,,0.00,,2013-01-09 20:03:00,
2013-01-09 14:12:00,36.0,21.0,-100.00,West,275,4.0,12.0,53,0.00,,,0.00,,2013-01-09 20:12:00,
2013-01-09 14:23:00,37.0,21.0,-100.00,West,270,6.0,16.0,52,0.00,,,0.00,,2013-01-09 20:23:00,
2013-01-09 14:33:00,37.0,21.0,-100.00,WNW,285,8.0,16.0,52,0.00,,,0.00,,2013-01-09 20:33:00,
2013-01-09 14:42:00,37.0,21.0,-100.00,WSW,255,5.0,14.0,51,0.00,,,0.00,,2013-01-09 20:42:00,
2013-01-09 14:52:00,37.0,21.0,-100.00,SW,215,7.0,14.0,51,0.00,,,0.00,,2013-01-09 20:52:00,
2013-01-09 15:03:00,37.0,21.0,-100.00,SSW,195,4.0,11.0,52,0.00,,,0.00,,2013-01-09 21:03:00,
2013-01-09 15:12:00,36.0,21.0,-100.00,WSW,240,5.0,12.0,53,0.00,,,0.00,,2013-01-09 21:12:00,
2013-01-09 15:22:00,36.0,21.0,-100.00,SW,215,4.0,14.0,54,0.00,,,0.00,,2013-01-09 21:22:00,
2013-01-09 15:33:00,36.0,21.0,-100.00,SW,215,4.0,11.0,54,0.00,,,0.00,,2013-01-09 21:33:00,
2013-01-09 15:43:00,37.0,21.0,-100.00,West,265,4.0,9.0,53,0.00,,,0.00,,2013-01-09 21:43:00,
2013-01-09 15:52:00,37.0,21.0,-100.00,WSW,240,2.0,12.0,53,0.00,,,0.00,,2013-01-09 21:52:00,
2013-01-09 16:03:00,36.0,21.0,-100.00,WSW,240,7.0,12.0,53,0.00,,,0.00,,2013-01-09 22:03:00,
2013-01-09 16:12:00,35.0,21.0,-100.00,WSW,245,3.0,12.0,54,0.00,,,0.00,,2013-01-09 22:12:00,
2013-01-09 16:22:00,35.0,21.0,-100.00,SSW,205,3.0,9.0,55,0.00,,,0.00,,2013-01-09 22:22:00,
2013-01-09 16:33:00,34.0,21.0,-100.00,SW,220,5.0,11.0,57,0.00,,,0.00,,2013-01-09 22:33:00,
2013-01-09 16:42:00,34.0,21.0,-100.00,SSE,165,5.0,10.0,59,0.00,,,0.00,,2013-01-09 22:42:00,
2013-01-09 16:52:00,33.0,21.0,-100.00,SSW,210,3.0,12.0,61,0.00,,,0.00,,2013-01-09 22:52:00,
2013-01-09 17:02:00,33.0,21.0,-100.00,SW,230,3.0,9.0,62,0.00,,,0.00,,2013-01-09 23:02:00,
2013-01-09 17:12:00,33.0,21.0,-100.00,East,90,1.0,7.0,63,0.00,,,0.00,,2013-01-09 23:12:00,
2013-01-09 17:22:00,32.0,21.0,-100.00,West,260,1.0,5.0,65,0.00,,,0.00,,2013-01-09 23:22:00,
2013-01-09 17:32:00,31.0,21.0,-100.00,SW,225,1.0,4.0,66,0.00,,,0.00,,2013-01-09 23:32:00,
2013-01-09 17:42:00,31.0,21.0,-100.00,South,190,1.0,4.0,68,0.00,,,0.00,,2013-01-09 23:42:00,
2013-01-09 17:52:00,30.0,21.0,-100.00,East,80,1.0,1.0,69,0.00,,,0.00,,2013-01-09 23:52:00,
2013-01-09 18:03:00,30.0,21.0,-100.00,South,185,1.0,2.0,71,0.00,,,0.00,,2013-01-10 00:03:00,
2013-01-09 18:12:00,30.0,21.0,-100.00,SSE,160,1.0,2.0,72,0.00,,,0.00,,2013-01-10 00:12:00,
2013-01-09 18:22:00,29.0,21.0,-100.00,SSE,155,1.0,1.0,73,0.00,,,0.00,,2013-01-10 00:22:00,
2013-01-09 18:32:00,30.0,23.0,-100.00,South,180,2.0,6.0,75,0.00,,,0.00,,2013-01-10 00:32:00,
2013-01-09 18:42:00,30.0,23.0,-100.00,SSE,155,2.0,5.0,76,0.00,,,0.00,,2013-01-10 00:42:00,
2013-01-09 18:52:00,30.0,23.0,-100.00,ESE,115,2.0,6.0,76,0.00,,,0.00,,2013-01-10 00:52:00,
2013-01-09 19:02:00,29.0,23.0,-100.00,ESE,120,1.0,4.0,77,0.00,,,0.00,,2013-01-10 01:02:00,
2013-01-09 19:12:00,29.0,23.0,-100.00,ESE,120,1.0,4.0,77,0.00,,,0.00,,2013-01-10 01:12:00,
2013-01-09 19:22:00,29.0,23.0,-100.00,SSE,155,4.0,7.0,79,0.00,,,0.00,,2013-01-10 01:22:00,
2013-01-09 19:33:00,29.0,23.0,-100.00,SSE,155,3.0,6.0,80,0.00,,,0.00,,2013-01-10 01:33:00,
2013-01-09 19:42:00,28.0,23.0,-100.00,SE,125,1.0,5.0,80,0.00,,,0.00,,2013-01-10 01:42:00,
2013-01-09 19:53:00,28.0,23.0,-100.00,SE,140,3.0,5.0,81,0.00,,,0.00,,2013-01-10 01:53:00,
2013-01-09 20:02:00,28.0,23.0,-100.00,SSE,155,6.0,11.0,82,0.00,,,0.00,,2013-01-10 02:02:00,
2013-01-09 20:12:00,29.0,25.0,-100.00,SSE,150,4.0,8.0,82,0.00,,,0.00,,2013-01-10 02:12:00,
2013-01-09 20:22:00,28.0,25.0,-100.00,SSE,155,6.0,10.0,83,0.00,,,0.00,,2013-01-10 02:22:00,
2013-01-09 20:32:00,28.0,25.0,-100.00,SSE,160,7.0,9.0,83,0.00,,,0.00,,2013-01-10 02:32:00,
2013-01-09 20:42:00,28.0,25.0,-100.00,SSE,160,7.0,9.0,83,0.00,,,0.00,,2013-01-10 02:42:00,
2013-01-09 20:52:00,28.0,25.0,-100.00,SSE,160,7.0,9.0,83,0.00,,,0.00,,2013-01-10 02:52:00,
2013-01-09 21:02:00,28.0,23.0,-100.00,SSE,160,4.0,7.0,84,0.00,,,0.00,,2013-01-10 03:02:00,
2013-01-09 21:12:00,28.0,23.0,-100.00,SSE,155,6.0,9.0,85,0.00,,,0.00,,2013-01-10 03:12:00,
2013-01-09 21:22:00,28.0,25.0,-100.00,SSE,160,6.0,10.0,85,0.00,,,0.00,,2013-01-10 03:22:00,
2013-01-09 21:32:00,28.0,25.0,-100.00,SE,145,6.0,9.0,85,0.00,,,0.00,,2013-01-10 03:32:00,
2013-01-09 21:42:00,28.0,25.0,-100.00,SSE,155,7.0,9.0,86,0.00,,,0.00,,2013-01-10 03:42:00,
2013-01-09 21:52:00,28.0,25.0,-100.00,SSE,160,6.0,9.0,86,0.00,,,0.00,,2013-01-10 03:52:00,
2013-01-09 22:02:00,27.0,25.0,-100.00,SSE,150,4.0,6.0,87,0.00,,,0.00,,2013-01-10 04:02:00,
2013-01-09 22:12:00,27.0,23.0,-100.00,SSE,150,2.0,5.0,87,0.00,,,0.00,,2013-01-10 04:12:00,
2013-01-09 22:22:00,27.0,23.0,-100.00,SE,145,6.0,7.0,88,0.00,,,0.00,,2013-01-10 04:22:00,
2013-01-09 22:32:00,27.0,25.0,-100.00,SE,145,6.0,8.0,89,0.00,,,0.00,,2013-01-10 04:32:00,
2013-01-09 22:42:00,27.0,25.0,-100.00,SE,145,6.0,9.0,90,0.00,,,0.00,,2013-01-10 04:42:00,
2013-01-09 22:52:00,27.0,25.0,-100.00,SSE,150,7.0,10.0,90,0.00,,,0.00,,2013-01-10 04:52:00,
2013-01-09 23:03:00,27.0,25.0,-100.00,SE,145,4.0,9.0,90,0.00,,,0.00,,2013-01-10 05:03:00,
2013-01-09 23:12:00,27.0,25.0,-100.00,SSE,155,6.0,8.0,91,0.00,,,0.00,,2013-01-10 05:12:00,
2013-01-09 23:22:00,26.0,25.0,-100.00,SSE,155,6.0,9.0,91,0.00,,,0.00,,2013-01-10 05:22:00,
2013-01-09 23:33:00,27.0,25.0,-100.00,SSE,160,9.0,11.0,91,0.00,,,0.00,,2013-01-10 05:33:00,
2013-01-09 23:42:00,26.0,25.0,-100.00,SE,135,7.0,12.0,91,0.00,,,0.00,,2013-01-10 05:42:00,
2013-01-09 23:52:00,26.0,25.0,-100.00,SE,135,9.0,10.0,91,0.00,,,0.00,,2013-01-10 05:52:00,